Station MDRM1 - Mt. Desert Rock, ME Image indicating link to RSS feed of recent meteorological observations for station MDRM1


Conditions at MDRM1 as of
(3:00 pm EDT)
1900 GMT on 04/15/2024:
     

Click on the graph icon in the table below to see a time series plot of the last five days of that observation.

5-day plot - Wind Direction Wind Direction (WDIR): S ( 180 deg true )
5-day plot - Wind Speed Wind Speed (WSPD): 14 kts
5-day plot - Wind Gust Wind Gust (GST): 15 kts
5-day plot - Atmospheric Pressure Atmospheric Pressure (PRES):29.77 in
5-day plot - Pressure Tendency Pressure Tendency (PTDY):+0.02 in ( Rising )
5-day plot - Air Temperature Air Temperature (ATMP): 47.3 °F
5-day plot - Dew Point Dew Point (DEWP): 45.3 °F
5-day plot - Wind Chill Wind Chill (CHILL): 41.0 °F
5-day plot - Wind Speed at 10 Meters Wind Speed at 10 meters (WSPD10M): 14 kts
5-day plot - Wind Speed at 20 Meters Wind Speed at 20 meters (WSPD20M): 14 kts
5-day plot -  Wind Speed, Wind Gust and Atmospheric Pressure Combined plot of Wind Speed, Gust, and Air Pressure
Continuous Winds
TIME
(EDT)
5-day plot - Wind Direction WDIR 5-day plot - Wind Speed WSPD
3:00 pmS ( 178 deg ) 14 kts
2:50 pmS ( 180 deg ) 14 kts
2:40 pmS ( 186 deg ) 13 kts
2:30 pmSSW ( 194 deg ) 13 kts
2:20 pmSSW ( 200 deg ) 12 kts
2:10 pmSSW ( 204 deg ) 12 kts
 
Peak gust during the measurement hour
TIME
(EDT)
5-day plot - Gust Direction GDR 5-day plot - Gust Speed GST
2:57 pmS ( 180 deg ) 15 kts
Previous observations
TIME
(EDT)
5-day plot - Wind Direction
WDIR
 
5-day plot - Wind Speed
WSPD
kts
5-day plot - Wind Gust
GST
kts
5-day plot - Wave Height
WVHT
ft
5-day plot - Dominant Wave Period
DPD
sec
5-day plot - Average Wave Period
APD
sec
5-day plot - Mean Wave Direction
MWD
 
5-day plot - Atmospheric Pressure
PRES
in
5-day plot - Pressure Tendency
PTDY
in
5-day plot - Air Temperature
ATMP
°F
5-day plot - Water Temperature
WTMP
°F
5-day plot - Dew Point
DEWP
°F
5-day plot - Salinity
SAL
psu
5-day plot - Visibility
VIS
nmi
5-day plot - Tide (above MLLW)
TIDE
ft
2024-04-15 02:00 pmSSW 12 12----29.77+0.01 47.1- 42.4---
2024-04-15 01:00 pmSSW 11 11----29.76+0.01 45.1- 43.3---
2024-04-15 12:00 pm SW 9 9----29.75+0.01 44.4- 42.6---
2024-04-15 11:00 amWSW 5 5----29.75+0.02 45.7- 42.4---
2024-04-15 10:00 am W 10 11----29.75+0.04 42.4- 42.4---
2024-04-15 09:00 am W 11 12----29.74+0.04 42.3- 42.3---
2024-04-15 08:00 am W 12 12----29.73+0.05 42.6- 42.6---
2024-04-15 07:00 amWSW 12 14----29.72+0.04 42.6- 42.6---
2024-04-15 06:00 amWSW 11 11----29.70+0.02 42.6- 42.6---
2024-04-15 05:00 amSSW 10 10----29.68+0.00 42.4- 42.4---
2024-04-15 04:00 am S 13 15----29.68-0.03 42.3- 42.3---
2024-04-15 03:00 am S 10 10----29.67-0.04 42.1- 42.1---
2024-04-15 02:00 am S 12 12----29.69-0.02 42.4- 42.4---
2024-04-15 01:00 amSSW 15 15----29.71+0.00 43.2- 42.6---
2024-04-15 12:00 amSSW 14 16----29.72+0.00 43.3- 42.3---
2024-04-14 11:00 pmSSW 14 15----29.71-0.01 43.9- 42.1---
2024-04-14 10:00 pmSSW 19 20----29.71+0.00 45.0- 41.5---
2024-04-14 09:00 pmSSW 18 20----29.71+0.02 45.0- 40.6---
2024-04-14 08:00 pm S 18 20----29.72+0.03 44.1- 40.1---
2024-04-14 07:00 pmSSW 13 15----29.70+0.00 44.8- 39.0---
2024-04-14 06:00 pmSSW 16 17----29.69-0.02 44.6- 38.8---
2024-04-14 05:00 pmSSW 16 17----29.69-0.03 45.0- 37.6---
2024-04-14 04:00 pmSSW 17 18----29.70-0.02 45.0- 37.6---
2024-04-14 03:00 pmSSW 19 20----29.71+0.00 44.8- 37.9---